,,Stat5,,Stat1,,Stat2,,Stat3,,Stat4,,Wind1,,Wind1,
time,status,PA1M_AVG,status,PR1M_SUM,status,RH1M_AVG,status,SR1M_AVG,status,TA1M_AVG,status,W1dAve1m,status,W1sAve1m,
2003-01-07, 00:00:01,VALID,920.7,VALID,0,VALID,96.0583,VALID,-0.0679233,VALID,19.7211,VALID,121,VALID,0.628906,
2003-01-07, 00:01:00,VALID,920.69,VALID,0,VALID,96.1931,VALID,-0.101885,VALID,19.7179,VALID,110,VALID,0.826891,
2003-01-07, 00:02:00,VALID,920.678,VALID,0,VALID,96.085,VALID,-0.0849042,VALID,19.7179,VALID,103,VALID,0.60766,
2003-01-07, 00:03:00,VALID,920.679,VALID,0,VALID,96.0672,VALID,-0.101885,VALID,19.7181,VALID,107,VALID,0.67462,
2003-01-07, 00:04:00,VALID,920.674,VALID,0,VALID,96.1982,VALID,-0.0849042,VALID,19.7146,VALID,115,VALID,0.83087,
2003-01-07, 00:05:00,VALID,920.66,VALID,0,VALID,96.2503,VALID,-0.0679233,VALID,19.7179,VALID,123,VALID,0.677344,
2003-01-07, 00:06:00,VALID,920.657,VALID,0,VALID,96.2401,VALID,-0.101885,VALID,19.7181,VALID,108,VALID,0.693051,
2003-01-07, 00:07:00,VALID,920.649,VALID,0,VALID,96.2465,VALID,-0.0849042,VALID,19.7308,VALID,108,VALID,0.666667,
2003-01-07, 00:08:00,VALID,920.656,VALID,0,VALID,96.2439,VALID,-0.101885,VALID,19.7375,VALID,112,VALID,0.7625,
2003-01-07, 00:09:00,VALID,920.641,VALID,0,VALID,96.2121,VALID,-0.0679233,VALID,19.7537,VALID,105,VALID,0.790799,
2003-01-07, 00:10:00,VALID,920.637,VALID,0,VALID,96.0596,VALID,-0.0509425,VALID,19.7628,VALID,106,VALID,0.697917,
2003-01-07, 00:11:00,VALID,920.628,VALID,0,VALID,95.9515,VALID,-0.0679233,VALID,19.7728,VALID,100,VALID,0.787977,
2003-01-07, 00:12:00,VALID,920.576,VALID,0,VALID,95.879,VALID,-0.0679233,VALID,19.815,VALID,104,VALID,0.721554,
2003-01-07, 00:13:00,VALID,920.576,VALID,0,VALID,95.7429,VALID,-0.0509425,VALID,19.8245,VALID,102,VALID,0.606291,
2003-01-07, 00:14:00,VALID,920.565,VALID,0,VALID,95.5649,VALID,-0.0339617,VALID,19.8566,VALID,104,VALID,0.609375,
2003-01-07, 00:15:00,VALID,920.553,VALID,0,VALID,95.3742,VALID,-0.0339617,VALID,19.866,VALID,104,VALID,0.620313,
2003-01-07, 00:16:00,VALID,920.544,VALID,0,VALID,95.3538,VALID,-0.0339617,VALID,19.866,VALID,101,VALID,0.899465,
2003-01-07, 00:17:00,VALID,920.547,VALID,0,VALID,95.3894,VALID,-0.0169808,VALID,19.8692,VALID,98,VALID,0.833133,
2003-01-07, 00:18:00,VALID,920.556,VALID,0,VALID,95.3678,VALID,-0.0169808,VALID,19.8894,VALID,100,VALID,0.917383,
2003-01-07, 00:19:00,VALID,920.554,VALID,0,VALID,95.1847,VALID,-0.0679233,VALID,19.8566,VALID,87,VALID,1.08697,
2003-01-07, 00:20:00,VALID,920.565,VALID,0,VALID,95.2762,VALID,-0.0339617,VALID,19.8339,VALID,83,VALID,0.945929,
2003-01-07, 00:21:00,VALID,920.566,VALID,0,VALID,95.2178,VALID,-0.0679233,VALID,19.7917,VALID,80,VALID,1.02183,
2003-01-07, 00:22:00,VALID,920.554,VALID,0,VALID,95.5064,VALID,-0.0509425,VALID,19.7628,VALID,91,VALID,1.04968,
2003-01-07, 00:23:00,VALID,920.533,VALID,0,VALID,95.8154,VALID,-0.0509425,VALID,19.7497,VALID,102,VALID,0.96875,
2003-01-07, 00:24:00,VALID,920.505,VALID,0,VALID,96.1448,VALID,-0.0339617,VALID,19.7564,VALID,115,VALID,1.18681,
2003-01-07, 00:25:00,VALID,920.483,VALID,0,VALID,96.0685,VALID,-0.0339617,VALID,19.7661,VALID,133,VALID,0.775,
2003-01-07, 00:26:00,VALID,920.465,VALID,0,VALID,96.118,VALID,-0.0339617,VALID,19.7596,VALID,127,VALID,0.921224,
2003-01-07, 00:27:00,VALID,920.445,VALID,0,VALID,96.0977,VALID,-0.0509425,VALID,19.7462,VALID,134,VALID,0.847439,
2003-01-07, 00:28:00,VALID,920.441,VALID,0,VALID,96.0621,VALID,-0.0339617,VALID,19.737,VALID,145,VALID,0.715794,
2003-01-07, 00:29:00,VALID,920.444,VALID,0,VALID,96.1206,VALID,-0.0339617,VALID,19.7213,VALID,139,VALID,1.0294,
2003-01-07, 00:30:00,VALID,920.446,VALID,0,VALID,96.3101,VALID,-0.0679233,VALID,19.6855,VALID,150,VALID,1.05751,
2003-01-07, 00:31:00,VALID,920.447,VALID,0,VALID,96.3851,VALID,-0.0509425,VALID,19.6691,VALID,146,VALID,0.98163,
2003-01-07, 00:32:00,VALID,920.448,VALID,0,VALID,96.5542,VALID,-0.0169808,VALID,19.6271,VALID,152,VALID,1.3253,
2003-01-07, 00:33:00,VALID,920.429,VALID,0,VALID,97.0133,VALID,0,VALID,19.6338,VALID,166,VALID,1.59375,
2003-01-07, 00:34:00,VALID,920.425,VALID,0,VALID,96.9522,VALID,-0.0509425,VALID,19.6465,VALID,164,VALID,0.894426,
2003-01-07, 00:35:00,VALID,920.407,VALID,0,VALID,96.9459,VALID,-0.0169808,VALID,19.6269,VALID,156,VALID,0.907584,
2003-01-07, 00:36:00,VALID,920.393,VALID,0,VALID,96.97,VALID,-0.0679233,VALID,19.6048,VALID,152,VALID,1.43477,
2003-01-07, 00:37:00,VALID,920.382,VALID,0,VALID,97.1302,VALID,-0.0339617,VALID,19.6075,VALID,149,VALID,1.47245,
2003-01-07, 00:38:00,VALID,920.366,VALID,0,VALID,97.1849,VALID,-0.0339617,VALID,19.6239,VALID,149,VALID,1.27006,
2003-01-07, 00:39:00,VALID,920.367,VALID,0,VALID,97.2129,VALID,-0.0169808,VALID,19.643,VALID,152,VALID,1.51797,
2003-01-07, 00:40:00,VALID,920.353,VALID,0,VALID,97.1964,VALID,-0.0339617,VALID,19.6781,VALID,152,VALID,1.62068,
2003-01-07, 00:41:00,VALID,920.35,VALID,0,VALID,97.0616,VALID,-0.0849042,VALID,19.7537,VALID,149,VALID,1.18705,
2003-01-07, 00:42:00,VALID,920.33,VALID,0,VALID,96.8149,VALID,-0.0509425,VALID,19.8175,VALID,141,VALID,1.58654,
2003-01-07, 00:43:00,VALID,920.3,VALID,0,VALID,96.4334,VALID,-0.0339617,VALID,19.8891,VALID,148,VALID,1.86719,
2003-01-07, 00:44:00,VALID,920.273,VALID,0,VALID,95.9502,VALID,-0.0849042,VALID,19.9731,VALID,141,VALID,1.231,
2003-01-07, 00:45:00,VALID,920.245,VALID,0,VALID,95.5318,VALID,-0.0339617,VALID,20.0278,VALID,132,VALID,1.68429,
2003-01-07, 00:46:00,VALID,920.233,VALID,0,VALID,95.1173,VALID,-0.0339617,VALID,20.1026,VALID,140,VALID,1.20868,
2003-01-07, 00:47:00,VALID,920.216,VALID,0,VALID,94.6951,VALID,-0.0509425,VALID,20.1412,VALID,141,VALID,1.30572,
2003-01-07, 00:48:00,VALID,920.205,VALID,0,VALID,94.3327,VALID,-0.0679233,VALID,20.1635,VALID,146,VALID,1.89633,
2003-01-07, 00:49:00,VALID,920.188,VALID,0,VALID,94.0364,VALID,-0.0509425,VALID,20.2028,VALID,140,VALID,1.35156,
2003-01-07, 00:50:00,VALID,920.175,VALID,0,VALID,93.8508,VALID,-0.0509425,VALID,20.1991,VALID,143,VALID,1.59692,
2003-01-07, 00:51:00,VALID,920.138,VALID,0,VALID,93.7516,VALID,-0.0339617,VALID,20.1961,VALID,148,VALID,1.35095,
2003-01-07, 00:52:00,VALID,920.112,VALID,0,VALID,93.7376,VALID,-0.0169808,VALID,20.1794,VALID,135,VALID,1.02484,
2003-01-07, 00:53:00,VALID,920.088,VALID,0,VALID,93.7847,VALID,-0.0169808,VALID,20.1765,VALID,135,VALID,1.0605,
2003-01-07, 00:54:00,VALID,920.068,VALID,0,VALID,93.8457,VALID,0,VALID,20.1573,VALID,139,VALID,0.776816,
2003-01-07, 00:55:00,VALID,920.044,VALID,0,VALID,93.9296,VALID,-0.0509425,VALID,20.131,VALID,118,VALID,0.861225,
2003-01-07, 00:56:00,VALID,920.023,VALID,0,VALID,94.0008,VALID,-0.0339617,VALID,20.1315,VALID,130,VALID,1.11378,
2003-01-07, 00:57:00,VALID,919.979,VALID,0,VALID,94.1115,VALID,-0.0339617,VALID,20.0989,VALID,130,VALID,1.25982,
2003-01-07, 00:58:00,VALID,919.966,VALID,0,VALID,94.1547,VALID,0,VALID,20.0798,VALID,115,VALID,1.21921,
2003-01-07, 00:59:00,VALID,919.945,VALID,0,VALID,94.128,VALID,-0.0509425,VALID,20.0475,VALID,97,VALID,0.792969,
2003-01-07, 01:00:00,VALID,919.934,VALID,0,VALID,94.3289,VALID,-0.0509425,VALID,19.9985,VALID,118,VALID,1.43095,
2003-01-07, 01:01:00,VALID,919.919,VALID,0,VALID,94.4675,VALID,-0.0679233,VALID,19.9764,VALID,114,VALID,1.42361,
2003-01-07, 01:02:00,VALID,919.908,VALID,0,VALID,94.615,VALID,-0.0339617,VALID,19.9537,VALID,127,VALID,1.3418,
2003-01-07, 01:03:00,VALID,919.894,VALID,0,VALID,94.676,VALID,-0.0679233,VALID,19.9373,VALID,117,VALID,1.04749,
2003-01-07, 01:04:00,VALID,919.874,VALID,0,VALID,94.7651,VALID,-0.0509425,VALID,19.9145,VALID,115,VALID,0.855263,
2003-01-07, 01:05:00,VALID,919.851,VALID,0,VALID,94.8083,VALID,-0.0339617,VALID,19.8956,VALID,139,VALID,0.542969,
2003-01-07, 01:06:00,VALID,919.83,VALID,0,VALID,94.8795,VALID,-0.0849042,VALID,19.8827,VALID,128,VALID,1.04353,
2003-01-07, 01:07:00,VALID,919.794,VALID,0,VALID,94.9418,VALID,-0.0509425,VALID,19.8503,VALID,128,VALID,0.983758,
2003-01-07, 01:08:00,VALID,919.763,VALID,0,VALID,95.0486,VALID,0,VALID,19.8213,VALID,128,VALID,1.11759,
2003-01-07, 01:09:00,VALID,919.741,VALID,0,VALID,95.1275,VALID,-0.0339617,VALID,19.7952,VALID,140,VALID,1.44258,
2003-01-07, 01:10:00,VALID,919.721,VALID,0,VALID,95.1478,VALID,-0.0339617,VALID,19.7949,VALID,138,VALID,1.0993,
2003-01-07, 01:11:00,VALID,919.701,VALID,0,VALID,95.2254,VALID,-0.0169808,VALID,19.7788,VALID,139,VALID,1.75884,
2003-01-07, 01:12:00,VALID,919.701,VALID,0,VALID,95.2368,VALID,0,VALID,19.7855,VALID,145,VALID,1.17268,
2003-01-07, 01:13:00,VALID,919.693,VALID,0,VALID,95.1834,VALID,0,VALID,19.7793,VALID,138,VALID,1.13842,
2003-01-07, 01:14:00,VALID,919.691,VALID,0,VALID,95.1351,VALID,-0.0679233,VALID,19.7631,VALID,130,VALID,1.32672,
2003-01-07, 01:15:00,VALID,919.678,VALID,0,VALID,95.1033,VALID,0,VALID,19.7432,VALID,103,VALID,0.784237,
2003-01-07, 01:16:00,VALID,919.664,VALID,0,VALID,95.0194,VALID,-0.0339617,VALID,19.7241,VALID,89,VALID,0.744727,
2003-01-07, 01:17:00,VALID,919.652,VALID,0,VALID,95.1732,VALID,-0.0509425,VALID,19.7082,VALID,95,VALID,0.731988,
2003-01-07, 01:18:00,VALID,919.626,VALID,0,VALID,95.2584,VALID,-0.0339617,VALID,19.6883,VALID,77,VALID,0.648872,
2003-01-07, 01:19:00,VALID,919.596,VALID,0,VALID,95.3945,VALID,-0.0339617,VALID,19.6791,VALID,79,VALID,0.6875,
2003-01-07, 01:20:00,VALID,919.559,VALID,0,VALID,95.411,VALID,-0.0339617,VALID,19.6689,VALID,79,VALID,0.575041,
2003-01-07, 01:21:00,VALID,919.53,VALID,0,VALID,95.3691,VALID,-0.0339617,VALID,19.6632,VALID,90,VALID,0.796658,
2003-01-07, 01:22:00,VALID,919.507,VALID,0,VALID,95.4466,VALID,-0.0339617,VALID,19.6435,VALID,76,VALID,0.551309,
2003-01-07, 01:23:00,VALID,919.485,VALID,0,VALID,95.4924,VALID,-0.0169808,VALID,19.6309,VALID,104,VALID,0.622613,
2003-01-07, 01:24:00,VALID,919.468,VALID,0,VALID,95.4555,VALID,-0.0339617,VALID,19.605,VALID,101,VALID,0.456003,
2003-01-07, 01:25:00,VALID,919.466,VALID,0,VALID,95.2813,VALID,0,VALID,19.5662,VALID,82,VALID,0.58087,
2003-01-07, 01:26:00,VALID,919.458,VALID,0,VALID,95.1147,VALID,-0.0339617,VALID,19.4887,VALID,56,VALID,0.664063,
2003-01-07, 01:27:00,VALID,919.479,VALID,0,VALID,95.1745,VALID,-0.0169808,VALID,19.4037,VALID,50,VALID,0.696094,
2003-01-07, 01:28:00,VALID,919.487,VALID,0,VALID,95.1008,VALID,-0.0169808,VALID,19.3108,VALID,38,VALID,0.604852,
2003-01-07, 01:29:00,VALID,919.505,VALID,0,VALID,95.6247,VALID,0,VALID,19.2524,VALID,38,VALID,0.565878,
2003-01-07, 01:30:00,VALID,919.526,VALID,0,VALID,95.8027,VALID,-0.0509425,VALID,19.1942,VALID,38,VALID,0.406641,
2003-01-07, 01:31:00,VALID,919.536,VALID,0,VALID,95.9667,VALID,-0.0339617,VALID,19.1524,VALID,38,VALID,0.309416,
2003-01-07, 01:32:00,VALID,919.548,VALID,0,VALID,96.4601,VALID,0,VALID,19.1328,VALID,38,VALID,0.284821,
2003-01-07, 01:33:00,VALID,919.554,VALID,0,VALID,96.8657,VALID,0,VALID,19.1524,VALID,78,VALID,0.474159,
2003-01-07, 01:34:00,VALID,919.554,VALID,0,VALID,97.0717,VALID,-0.0509425,VALID,19.1785,VALID,96,VALID,0.5523,
2003-01-07, 01:35:00,VALID,919.552,VALID,0,VALID,96.4092,VALID,0,VALID,19.1331,VALID,31,VALID,0.738598,
2003-01-07, 01:36:00,VALID,919.55,VALID,0,VALID,96.1053,VALID,0,VALID,19.0327,VALID,52,VALID,0.692308,
2003-01-07, 01:37:00,VALID,919.542,VALID,0,VALID,96.3037,VALID,0,VALID,19.0071,VALID,54,VALID,0.745271,
2003-01-07, 01:38:00,VALID,919.525,VALID,0,VALID,96.736,VALID,-0.0169808,VALID,18.9845,VALID,57,VALID,0.803454,
2003-01-07, 01:39:00,VALID,919.518,VALID,0,VALID,97.2409,VALID,-0.0169808,VALID,19.0165,VALID,74,VALID,0.995355,
2003-01-07, 01:40:00,VALID,919.492,VALID,0,VALID,97.6986,VALID,-0.0169808,VALID,19.0814,VALID,76,VALID,1.20508,
2003-01-07, 01:41:00,VALID,919.482,VALID,0,VALID,97.7025,VALID,-0.0169808,VALID,19.1721,VALID,91,VALID,1.30469,
2003-01-07, 01:42:00,VALID,919.466,VALID,0,VALID,97.1264,VALID,-0.0169808,VALID,19.2337,VALID,76,VALID,1.19922,
2003-01-07, 01:43:00,VALID,919.45,VALID,0,VALID,96.6763,VALID,0,VALID,19.2851,VALID,88,VALID,1.0024,
2003-01-07, 01:44:00,VALID,919.437,VALID,0,VALID,96.319,VALID,0.0169808,VALID,19.3299,VALID,94,VALID,0.815304,
2003-01-07, 01:45:00,VALID,919.431,VALID,0,VALID,95.7849,VALID,-0.0169808,VALID,19.35,VALID,90,VALID,0.782306,
2003-01-07, 01:46:00,VALID,919.435,VALID,0,VALID,95.2394,VALID,-0.0339617,VALID,19.3371,VALID,121,VALID,0.54523,
2003-01-07, 01:47:00,VALID,919.433,VALID,0,VALID,95.0016,VALID,-0.0169808,VALID,19.2623,VALID,130,VALID,0.588141,
2003-01-07, 01:48:00,VALID,919.454,VALID,0,VALID,95.4238,VALID,-0.0339617,VALID,19.2208,VALID,140,VALID,0.786659,
2003-01-07, 01:49:00,VALID,919.453,VALID,0,VALID,95.6501,VALID,-0.0169808,VALID,19.1917,VALID,147,VALID,0.962316,
2003-01-07, 01:50:00,VALID,919.465,VALID,0,VALID,95.7862,VALID,-0.0339617,VALID,19.1594,VALID,148,VALID,1.06414,
2003-01-07, 01:51:00,VALID,919.474,VALID,0,VALID,95.9909,VALID,-0.0339617,VALID,19.134,VALID,146,VALID,1.0568,
2003-01-07, 01:52:00,VALID,919.485,VALID,0,VALID,96.221,VALID,-0.0169808,VALID,19.1204,VALID,148,VALID,1.14779,
2003-01-07, 01:53:00,VALID,919.504,VALID,0,VALID,96.2325,VALID,-0.0509425,VALID,19.1213,VALID,155,VALID,0.946181,
2003-01-07, 01:54:00,VALID,919.511,VALID,0,VALID,96.2859,VALID,-0.0509425,VALID,19.1176,VALID,151,VALID,0.716488,
2003-01-07, 01:55:00,VALID,919.517,VALID,0,VALID,96.2109,VALID,-0.0679233,VALID,19.0886,VALID,147,VALID,0.845395,
2003-01-07, 01:56:00,VALID,919.543,VALID,0,VALID,96.1613,VALID,-0.0679233,VALID,19.0625,VALID,149,VALID,0.971354,
2003-01-07, 01:57:00,VALID,919.545,VALID,0,VALID,96.2338,VALID,-0.0339617,VALID,19.0563,VALID,153,VALID,0.708259,
2003-01-07, 01:58:00,VALID,919.534,VALID,0,VALID,96.1613,VALID,-0.0679233,VALID,19.0396,VALID,151,VALID,0.57278,
2003-01-07, 01:59:00,VALID,919.55,VALID,0,VALID,96.2338,VALID,-0.101885,VALID,19.0466,VALID,151,VALID,0.509415,
2003-01-07, 02:00:01,VALID,919.569,VALID,0,VALID,96.2249,VALID,-0.0679233,VALID,19.0503,VALID,152,VALID,0.220898,
2003-01-07, 02:01:00,VALID,919.581,VALID,0,VALID,96.263,VALID,-0.0679233,VALID,19.0401,VALID,143,VALID,0.164063,
2003-01-07, 02:02:00,VALID,919.601,VALID,0,VALID,96.3342,VALID,-0.0509425,VALID,19.06,VALID,134,VALID,0.063528,
2003-01-07, 02:03:00,VALID,919.627,VALID,0,VALID,96.3902,VALID,-0.0679233,VALID,19.0592,VALID,134,VALID,0.288261,
2003-01-07, 02:04:00,VALID,919.638,VALID,0,VALID,96.5021,VALID,-0.0849042,VALID,19.0756,VALID,134,VALID,0.232372,
2003-01-07, 02:05:00,VALID,919.645,VALID,0,VALID,96.4309,VALID,-0.0849042,VALID,19.0789,VALID,134,VALID,0.0324519,
2003-01-07, 02:06:00,VALID,919.653,VALID,0,VALID,96.3571,VALID,-0.101885,VALID,19.0756,VALID,134,VALID,0.089614,
2003-01-07, 02:07:00,VALID,919.641,VALID,0,VALID,96.2554,VALID,-0.0339617,VALID,19.0662,VALID,132,VALID,0.226367,
2003-01-07, 02:08:01,VALID,919.623,VALID,0,VALID,96.3444,VALID,0.0509425,VALID,19.0257,VALID,131,VALID,0.28928,
2003-01-07, 02:09:00,VALID,919.619,VALID,0,VALID,96.1168,VALID,0.0339617,VALID,18.9937,VALID,106,VALID,0.332031,
2003-01-07, 02:10:00,VALID,919.604,VALID,0,VALID,95.687,VALID,0,VALID,18.9005,VALID,72,VALID,0.461571,
2003-01-07, 02:11:00,VALID,919.607,VALID,0,VALID,96.1816,VALID,0.0339617,VALID,18.8545,VALID,72,VALID,0.528577,
2003-01-07, 02:12:00,VALID,919.596,VALID,0,VALID,96.4092,VALID,0.0169808,VALID,18.8552,VALID,69,VALID,0.858073,
2003-01-07, 02:13:00,VALID,919.6,VALID,0,VALID,96.5351,VALID,0,VALID,18.8451,VALID,66,VALID,0.887247,
2003-01-07, 02:14:00,VALID,919.604,VALID,0,VALID,96.5529,VALID,-0.0169808,VALID,18.8418,VALID,67,VALID,0.714844,
2003-01-07, 02:15:01,VALID,919.617,VALID,0,VALID,96.4169,VALID,0,VALID,18.8287,VALID,68,VALID,0.693668,
2003-01-07, 02:16:01,VALID,919.643,VALID,0,VALID,96.4143,VALID,0,VALID,18.8165,VALID,72,VALID,0.76478,
2003-01-07, 02:17:00,VALID,919.646,VALID,0,VALID,96.7081,VALID,0,VALID,18.81,VALID,78,VALID,0.806974,
2003-01-07, 02:18:00,VALID,919.649,VALID,0,VALID,96.6102,VALID,0,VALID,18.7966,VALID,74,VALID,0.876758,
2003-01-07, 02:19:01,VALID,919.646,VALID,0,VALID,96.6979,VALID,0.0339617,VALID,18.7969,VALID,66,VALID,0.990954,
2003-01-07, 02:20:00,VALID,919.62,VALID,0,VALID,96.834,VALID,0.0169808,VALID,18.7899,VALID,58,VALID,1.08404,
2003-01-07, 02:21:00,VALID,919.591,VALID,0,VALID,97.0171,VALID,0.0169808,VALID,18.8026,VALID,60,VALID,1.01387,
2003-01-07, 02:22:01,VALID,919.563,VALID,0,VALID,97.026,VALID,0.0169808,VALID,18.8158,VALID,60,VALID,0.995683,
2003-01-07, 02:23:01,VALID,919.543,VALID,0,VALID,96.9459,VALID,0.0339617,VALID,18.8095,VALID,64,VALID,0.981027,
2003-01-07, 02:24:00,VALID,919.524,VALID,0,VALID,96.9675,VALID,0,VALID,18.7902,VALID,55,VALID,1.15705,
2003-01-07, 02:25:00,VALID,919.516,VALID,0,VALID,96.7691,VALID,0.0339617,VALID,18.7641,VALID,46,VALID,0.977214,
2003-01-07, 02:26:01,VALID,919.525,VALID,0,VALID,96.8683,VALID,0.0509425,VALID,18.7417,VALID,52,VALID,0.938556,
2003-01-07, 02:27:00,VALID,919.522,VALID,0,VALID,97.1938,VALID,0,VALID,18.7713,VALID,54,VALID,0.726362,
2003-01-07, 02:28:00,VALID,919.538,VALID,0,VALID,97.3464,VALID,0.0169808,VALID,18.7934,VALID,60,VALID,0.524054,
2003-01-07, 02:29:00,VALID,919.552,VALID,0,VALID,97.4354,VALID,0.0339617,VALID,18.8356,VALID,60,VALID,0.380757,
2003-01-07, 02:30:00,VALID,919.564,VALID,0,VALID,97.4558,VALID,0.0169808,VALID,18.8617,VALID,60,VALID,0.352196,
2003-01-07, 02:31:00,VALID,919.56,VALID,0,VALID,97.3032,VALID,0,VALID,18.8545,VALID,43,VALID,0.424913,
2003-01-07, 02:32:00,VALID,919.561,VALID,0,VALID,97.1137,VALID,0,VALID,18.8359,VALID,43,VALID,0.143581,
2003-01-07, 02:33:00,VALID,919.566,VALID,0,VALID,97.2104,VALID,0.0339617,VALID,18.8359,VALID,43,VALID,0.138363,
2003-01-07, 02:34:01,VALID,919.577,VALID,0,VALID,97.2371,VALID,0,VALID,18.8326,VALID,43,VALID,0.0588942,
2003-01-07, 02:35:00,VALID,919.563,VALID,0,VALID,97.2994,VALID,0,VALID,18.8359,VALID,76,VALID,0.334135,
2003-01-07, 02:36:01,VALID,919.555,VALID,0,VALID,97.3184,VALID,0.0169808,VALID,18.8423,VALID,123,VALID,0.165329,
2003-01-07, 02:37:00,VALID,919.539,VALID,0,VALID,97.1811,VALID,0.0169808,VALID,18.8423,VALID,123,VALID,0.0275493,
2003-01-07, 02:38:00,VALID,919.53,VALID,0,VALID,97.2396,VALID,0,VALID,18.8162,VALID,123,VALID,0.301883,
2003-01-07, 02:39:00,VALID,919.521,VALID,0,VALID,97.176,VALID,0,VALID,18.8232,VALID,124,VALID,0.267628,
2003-01-07, 02:40:01,VALID,919.523,VALID,0,VALID,97.1519,VALID,0.0339617,VALID,18.8001,VALID,126,VALID,0.403493,
2003-01-07, 02:41:00,VALID,919.505,VALID,0,VALID,97.3477,VALID,0.0169808,VALID,18.7936,VALID,132,VALID,0.593133,
2003-01-07, 02:42:00,VALID,919.495,VALID,0,VALID,97.4113,VALID,0.0169808,VALID,18.8065,VALID,140,VALID,0.811022,
2003-01-07, 02:43:00,VALID,919.474,VALID,0,VALID,97.1391,VALID,0,VALID,18.7911,VALID,142,VALID,0.881293,
2003-01-07, 02:44:00,VALID,919.445,VALID,0,VALID,97.3057,VALID,0.0509425,VALID,18.7715,VALID,144,VALID,1.04731,
2003-01-07, 02:45:00,VALID,919.414,VALID,0,VALID,97.1353,VALID,0.0339617,VALID,18.7482,VALID,142,VALID,0.764186,
2003-01-07, 02:46:00,VALID,919.389,VALID,0,VALID,97.1913,VALID,0,VALID,18.7419,VALID,143,VALID,0.813939,
2003-01-07, 02:47:00,VALID,919.364,VALID,0,VALID,97.3553,VALID,0.0679233,VALID,18.7514,VALID,122,VALID,1.00933,
2003-01-07, 02:48:00,VALID,919.332,VALID,0,VALID,97.6656,VALID,0,VALID,18.8003,VALID,106,VALID,1.10201,
2003-01-07, 02:49:00,VALID,919.3,VALID,0,VALID,97.761,VALID,0.0169808,VALID,18.8585,VALID,108,VALID,0.922081,
2003-01-07, 02:50:00,VALID,919.285,VALID,0,VALID,97.7317,VALID,0.0169808,VALID,18.9164,VALID,104,VALID,0.908454,
2003-01-07, 02:51:01,VALID,919.256,VALID,0,VALID,97.5995,VALID,0,VALID,18.9653,VALID,109,VALID,1.07031,
2003-01-07, 02:52:01,VALID,919.229,VALID,0,VALID,97.4151,VALID,0,VALID,18.9874,VALID,103,VALID,0.948396,
2003-01-07, 02:53:00,VALID,919.224,VALID,0,VALID,97.2701,VALID,0.0169808,VALID,19.0138,VALID,87,VALID,0.973067,
2003-01-07, 02:54:00,VALID,919.212,VALID,0,VALID,97.0336,VALID,0.0339617,VALID,19.0135,VALID,79,VALID,1.09555,
2003-01-07, 02:55:01,VALID,919.184,VALID,0,VALID,97.1035,VALID,0.0509425,VALID,19.0133,VALID,91,VALID,1.05609,
2003-01-07, 02:56:00,VALID,919.161,VALID,0,VALID,97.1061,VALID,0.0169808,VALID,19.0389,VALID,87,VALID,1.03906,
2003-01-07, 02:57:01,VALID,919.155,VALID,0,VALID,96.8416,VALID,0.0169808,VALID,19.0481,VALID,84,VALID,1.07376,
2003-01-07, 02:58:00,VALID,919.117,VALID,0,VALID,96.7144,VALID,0.0339617,VALID,19.0426,VALID,86,VALID,1.32246,
2003-01-07, 02:59:01,VALID,919.083,VALID,0,VALID,96.6915,VALID,0.0339617,VALID,19.0262,VALID,93,VALID,1.27604,
2003-01-07, 03:00:00,VALID,919.046,VALID,0,VALID,96.8289,VALID,0.0509425,VALID,19.0001,VALID,95,VALID,1.48741,
2003-01-07, 03:01:00,VALID,919.02,VALID,0,VALID,96.82,VALID,0.0339617,VALID,18.9971,VALID,97,VALID,1.46558,
2003-01-07, 03:02:01,VALID,919.002,VALID,0,VALID,96.839,VALID,0.0339617,VALID,18.9743,VALID,101,VALID,1.21464,
2003-01-07, 03:03:00,VALID,919.003,VALID,0,VALID,96.8111,VALID,0.0339617,VALID,18.9519,VALID,108,VALID,1.15647,
2003-01-07, 03:04:00,VALID,918.995,VALID,0,VALID,96.8657,VALID,0.0509425,VALID,18.9291,VALID,117,VALID,1.28378,
2003-01-07, 03:05:00,VALID,918.985,VALID,0,VALID,96.8721,VALID,0.0509425,VALID,18.9069,VALID,109,VALID,1.13151,
2003-01-07, 03:06:01,VALID,918.971,VALID,0,VALID,96.8518,VALID,0.0169808,VALID,18.8709,VALID,118,VALID,0.972862,
2003-01-07, 03:07:01,VALID,918.949,VALID,0,VALID,97.0463,VALID,0.0169808,VALID,18.8709,VALID,125,VALID,0.968328,
2003-01-07, 03:08:01,VALID,918.925,VALID,0,VALID,96.942,VALID,0,VALID,18.8612,VALID,119,VALID,0.77077,
2003-01-07, 03:09:01,VALID,918.907,VALID,0,VALID,96.8492,VALID,0.0169808,VALID,18.8389,VALID,112,VALID,0.89375,
2003-01-07, 03:10:01,VALID,918.884,VALID,0,VALID,96.9497,VALID,0.0509425,VALID,18.8227,VALID,118,VALID,1.28721,
2003-01-07, 03:11:00,VALID,918.878,VALID,0,VALID,96.9802,VALID,0.0169808,VALID,18.7904,VALID,133,VALID,1.072,
2003-01-07, 03:12:00,VALID,918.89,VALID,0,VALID,97.0031,VALID,0.0169808,VALID,18.7581,VALID,117,VALID,0.911914,
2003-01-07, 03:13:01,VALID,918.899,VALID,0,VALID,96.956,VALID,0.0339617,VALID,18.739,VALID,122,VALID,0.723479,
2003-01-07, 03:14:01,VALID,918.927,VALID,0,VALID,97.0565,VALID,0.0169808,VALID,18.6967,VALID,127,VALID,0.52433,
2003-01-07, 03:15:00,VALID,918.926,VALID,0,VALID,97.1887,VALID,0.0509425,VALID,18.6674,VALID,125,VALID,0.534255,
2003-01-07, 03:16:00,VALID,918.93,VALID,0,VALID,97.3833,VALID,0.0339617,VALID,18.6448,VALID,145,VALID,0.67513,
2003-01-07, 03:17:01,VALID,918.937,VALID,0,VALID,97.5486,VALID,0.0169808,VALID,18.6453,VALID,147,VALID,0.779139,
2003-01-07, 03:18:00,VALID,918.935,VALID,0,VALID,97.7597,VALID,0.0509425,VALID,18.6418,VALID,149,VALID,0.963141,
2003-01-07, 03:19:00,VALID,918.933,VALID,0,VALID,97.8309,VALID,0.0679233,VALID,18.6418,VALID,151,VALID,1.07381,
2003-01-07, 03:20:00,VALID,918.945,VALID,0,VALID,97.9288,VALID,0.0509425,VALID,18.6483,VALID,150,VALID,0.855058,
2003-01-07, 03:21:00,VALID,918.959,VALID,0,VALID,97.9148,VALID,0.0169808,VALID,18.6483,VALID,150,VALID,1.21833,
2003-01-07, 03:22:00,VALID,918.972,VALID,0,VALID,97.8983,VALID,0.0339617,VALID,18.658,VALID,155,VALID,1.01194,
2003-01-07, 03:23:00,VALID,918.982,VALID,0,VALID,97.925,VALID,-0.0849042,VALID,18.6594,VALID,154,VALID,1.21917,
2003-01-07, 03:24:00,VALID,918.988,VALID,0,VALID,98.0814,VALID,-0.0679233,VALID,18.6951,VALID,157,VALID,1.14988,
2003-01-07, 03:25:01,VALID,918.997,VALID,0,VALID,98.0127,VALID,-0.0339617,VALID,18.7307,VALID,154,VALID,1.01843,
2003-01-07, 03:26:01,VALID,919.016,VALID,0,VALID,97.9797,VALID,-0.101885,VALID,18.7466,VALID,153,VALID,1.07953,
2003-01-07, 03:27:01,VALID,919.03,VALID,0,VALID,97.883,VALID,-0.0509425,VALID,18.7694,VALID,148,VALID,0.811867,
2003-01-07, 03:28:00,VALID,919.057,VALID,0,VALID,97.8512,VALID,-0.101885,VALID,18.7858,VALID,143,VALID,0.835938,
2003-01-07, 03:29:00,VALID,919.067,VALID,0,VALID,97.8729,VALID,-0.0849042,VALID,18.8147,VALID,148,VALID,0.855168,
2003-01-07, 03:30:00,VALID,919.082,VALID,0,VALID,97.9008,VALID,-0.101885,VALID,18.8467,VALID,155,VALID,0.659655,
2003-01-07, 03:31:01,VALID,919.088,VALID,0,VALID,97.8449,VALID,-0.0679233,VALID,18.8922,VALID,151,VALID,0.537224,